Regional Weather Roundup
Issued by NWS Charleston, SC

Current Version | Previous Version | Graphics & Text | Print | Product List | Glossary On
Versions: 1 2 3 4 5 6 7 8 9 10 11 12 13 14 15 16 17 18 19 20 21 22 23 24 25 26 27 28 29 30 31 32 33 34 35 36 37 38 39 40 41 42 43 44 45 46 47 48 49 50
000 ASUS42 KCHS 220212 RWRCHS Regional Weather Roundup National Weather Service Charleston SC 1000 PM EDT SAT APR 21 2018 NOTE: "fair" indicates few or no clouds below 12,000 feet with no significant weather and/or obstructions to visibility. Not all stations are quality controlled. Use data with caution, especially dewpoint observations. SCZ027-030-031-034>040-042>050-220300- ...Southeast South Carolina... CITY SKY/WX TMP DP RH WIND PRES REMARKS N Charleston FAIR 59 51 75 NE7 30.34R Waterfront Prk NOT AVBL Mount Pleasant FAIR 61 54 77 CALM 30.34S Johns Island CLOUDY 61 55 82 NE10 30.33S Pinopolis N/A 59 52 77 VRB3 30.25R Moncks Corner FAIR 57 46 67 E3 30.34S Summerville FAIR 59 50 72 E3 30.35R Beaufort MCAS MOCLDY 63 55 75 E8 30.32R Beaufort Arpt FAIR 63 54 72 NE8 30.32R Hilton Head Is FAIR 63 55 77 VRB7G14 30.32R Walterboro FAIR 59 50 72 CALM 30.34R Allendale MOCLDY 63 52 67 CALM 30.31R ...Southern Midlands and Pee Dee... CITY SKY/WX TMP DP RH WIND PRES REMARKS Georgetown FAIR 54 54 100 CALM 30.37R Kingstree FAIR 55 46 71 E5 30.35R Orangeburg MOCLDY 61 50 67 SE7 30.33R Barnwell CLOUDY 64 52 63 SE10 30.31R Aiken FAIR 61 50 67 SE6 30.34R Manning FAIR 54 45 71 CALM 30.35R Columbia FAIR 64 50 60 SE9 30.31R Sumter FAIR 61 47 61 SE6 30.31R Florence FAIR 58 47 66 S8 30.35R Myrtle Beach FAIR 59 49 69 E12 30.38R N Myrtle Beach FAIR 60 46 59 E7 30.36R $$ GAZ063-065-086>088-099>101-113>116-118-119-134>141-150-220300- ...Southeast Georgia... CITY SKY/WX TMP DP RH WIND PRES REMARKS Savannah Arpt MOCLDY 63 54 72 E9 30.30S Hunter AAF MOCLDY 63 55 74 E8 30.27S Fort Stewart CLOUDY 63 54 72 E5 30.28R Statesboro CLOUDY 65 49 56 SE5 30.30S Sylvania CLOUDY 64 55 72 SE6 30.32R Claxton CLOUDY 66 55 67 NE10 30.30R ...CSRA, Central and far Southeast Georgia... CITY SKY/WX TMP DP RH WIND PRES REMARKS Thomson CLOUDY 63 48 58 S3 30.33R Augusta-Bush CLOUDY 65 53 65 SE8 30.29R Augusta-Daniel MOCLDY 66 53 63 SE6 30.30R Swainsboro CLOUDY 66 55 68 SE9 30.29S Vidalia CLOUDY 66 55 68 E7 30.28R Eastman CLOUDY 65 52 60 E8 30.29R Hazlehurst CLOUDY 64 56 77 E6 30.26S Alma CLOUDY 63 57 81 E5 30.25S Waycross MOCLDY 62 59 91 E7 30.25S Jesup NOT AVBL Baxley CLOUDY 61 61 100 E5 30.27R Brunswick CLOUDY 64 59 82 NE8 30.28R Saint Simons CLOUDY 66 62 87 NE7 30.26R $$ SCZ027-028-034-036>038-045-046-048>050-GAZ119-141-220300- ...Lake and Supplemental Coastal Observations... STATION/POSITION TIME TEMP WIND PRES WAVE SWELL AIR SEA DIR/SP/G HT/PER HT/PER/DIR (UTC) (F) (DEG/KT/KT) (MB) (FT/S) (FT/S/D) Winyah Bay 0045 61 90/ 10 1027.0 Lake Murray 0120 62 CALM 1025.4 ACE Basin NERRS 0045 62 350/ 4 N/A Fort Pulaski 0136 64 65 70/ 15/ 18 1026.3R Sapelo Island 0100 65 60/ 7 1025.0 $$ ANZ835-935-AMZ111-154-330-350-352-354-370-450-454-472-220300- ...C-MAN and Buoy Observations... STATION/POSITION TIME TEMP WIND PRES WAVE SWELL AIR SEA DIR/SP/G HT/PER HT/PER/DIR (UTC) (F) (DEG/KT/KT) (MB) (FT/S) (FT/S/D) Buoy 41004 0150 66 67 60/ 16/ 19 1026.6R 5/ 6 2/110/14 Buoy 41008 0150 66 65 90/ 12/ 14 1024.7R 5/ 6 3/120/ 6 Folly Beach CMAN 0200 63 60/ 14/ 16 1027.6R Capers Nearshore 0108 63 63 70/ 14/ 19 1027.1R Fripp Nearshore 0108 63 64 60/ 17/ 21 1025.6R STATION/POSITION TIME TEMP WIND PRES WAVE SWELL AIR SEA DIR/SP/G HT/PER HT/PER/DIR (UTC) (F) (DEG/KT/KT) (MB) (FT/S) (FT/S/D) 5E St. Marys GA 0200 66 N/A 5/ 7 Frying Pan Buoy 0150 64 67 70/ 16/ 19 1027.9R 4/ 5 2/ 80/ 8 Buoy 41025 0200 58 73 30/ 12/ 16 1029.5 Cape Lookout NC 0100 100/ 10/ 11 1029.0R Buoy 41002 0150 65 72 80/ 12/ 16 1027.1R 4/ 8 3/ 20/ 8 Buoy 41010 0150 72 76 70/ 19/ 25 1023.7R 7/ 7 2/ 70/15 St Augustine FL 0200 69 67 90/ 15/ 17 1023.7R $$

USA.gov is the U.S. government's official web portal to all federal, state and local government web resources and services.